Regional Weather Roundup
Issued by NWS

Home | Current Version | Previous Version | Text Only | Print | Product List | Glossary On
Versions: 1 2 3 4 5 6 7 8 9 10 11 12 13 14 15 16 17 18 19 20 21 22 23 24 25 26 27 28 29 30 31 32 33 34 35 36 37 38 39 40 41 42 43 44 45 46 47 48 49 50
000
ASUS46 KPQR 270210
RWROR

OREGON REGIONAL WEATHER ROUNDUP
NATIONAL WEATHER SERVICE PORTLAND OR
700 PM PDT TUE MAY 26 2015

NOTE: "FAIR" INDICATES FEW OR NO CLOUDS BELOW 12,000 FEET WITH
NO SIGNIFICANT WEATHER AND/OR OBSTRUCTIONS TO VISIBILITY.

ORZ001>013-270300-
NORTHWEST OREGON


CITY           SKY/WX    TMP DP  RH WIND       PRES   REMARKS
ASTORIA        SUNNY     60  50  69 W7        30.04S
NEWPORT        MOSUNNY   55  50  82 N10       30.08S
PORTLAND       PTSUNNY   69  50  50 N7        30.00S
VANCOUVER WA   CLOUDY    69  48  47 N5        29.99S
SCAPPOOSE      CLOUDY    68  49  50 N7        29.99S
HILLSBORO      PTSUNNY   67  50  54 NE6       29.99S
AURORA         MOSUNNY   69  50  50 N8        30.00S
MCMINNVILLE    PTSUNNY   69  51  52 SE3       30.00S
SALEM          SUNNY     70  49  47 NE7       29.98F
CORVALLIS      MOSUNNY   70  52  52 NE7       30.00S
EUGENE         MOSUNNY   68  51  54 NE9       29.99S
$$

ORZ021-028-270300-
SOUTHWEST OREGON


CITY           SKY/WX    TMP DP  RH WIND       PRES   REMARKS
NORTH BEND     SUNNY     57  54  88 N18G25    30.05S
BROOKINGS      SUNNY     57  53  86 VRB7      29.97S
ROSEBURG       SUNNY     74  48  39 N10       29.95S
SEXTON SUMMIT  SUNNY     62  48  60 VRB5      30.00S
MEDFORD        SUNNY     80  38  22 N16       29.89R
$$

ORZ014>016-041-270300-
COLUMBIA GORGE


CITY           SKY/WX    TMP DP  RH WIND       PRES   REMARKS
TROUTDALE      CLOUDY    69  49  48 VRB5      29.98F
THE DALLES     MOSUNNY   71  46  40 NW13G24   29.90S
$$

ORZ029>031-041-044-049-050-061>064-502-503-505>511-270300-
EASTERN OREGON


CITY           SKY/WX    TMP DP  RH WIND       PRES   REMARKS
REDMOND        SUNNY     70  39  32 N12       29.93R
BEND           MOSUNNY   68  37  32 N8        29.94S
PRINEVILLE     SUNNY     70  37  30 NW13      29.93S
KLAMATH FALLS  SUNNY     70  31  23 NW13G20   29.96S
LAKEVIEW       MOSUNNY   70  34  26 W14       29.97S
HERMISTON      PTSUNNY   70  50  49 NE15G23   29.89R
PENDLETON      MOSUNNY   66  50  56 NE16G23   29.90S
JOHN DAY       MOSUNNY   66  38  35 NW7       29.93S
MEACHAM        MOSUNNY   60  44  55 VRB3      29.97S
LA GRANDE      MOSUNNY   66  41  39 NW9       29.91S
BAKER CITY     CLOUDY    61  46  57 NW16      29.93R
BURNS          SUNNY     70  28  21 NW15      29.92S
ROME             N/A     67  45  45 SE9       29.89R
ONTARIO        PTSUNNY   72  44  36 N8        29.85S
$$


USA.gov is the U.S. government's official web portal to all federal, state and local government web resources and services.